This is the latest recevied weather packets stored in our database for station/object ED4YAZ-13. If no packets are shown the sender has not sent any weather packets the latest 10 day(s).
| Time | Temp. | Humidity | Pressure | Rain* | Wind** | Luminosity | Snow |
|---|---|---|---|---|---|---|---|
| 1778048555 | 8.33° C | 67% | 1014.9 hPa | - | - | - | - |
| 1778047952 | 7.78° C | 69% | 1015.2 hPa | - | - | - | - |
| 1778047357 | 7.22° C | 71% | 1015.5 hPa | - | - | - | - |
| 1778047352 | 7.22° C | 71% | 1015.5 hPa | - | - | - | - |
| 1778046752 | 6.67° C | 72% | 1015.6 hPa | - | - | - | - |
| 1778046152 | 6.11° C | 73% | 1015.8 hPa | - | - | - | - |
| 1778045552 | 6.11° C | 74% | 1015.8 hPa | - | - | - | - |
| 1778044952 | 5.56° C | 75% | 1015.9 hPa | - | - | - | - |
| 1778044349 | 5.56° C | 75% | 1015.9 hPa | - | - | - | - |
| 1778043823 | 5.56° C | 74% | 1015.9 hPa | - | - | - | - |
| 1778043749 | 5.56° C | 74% | 1015.9 hPa | - | - | - | - |
| 1778042555 | 5.56° C | 74% | 1016 hPa | - | - | - | - |
| 1778042547 | 5.56° C | 74% | 1016 hPa | - | - | - | - |
| 1778041949 | 5.56° C | 74% | 1015.9 hPa | - | - | - | - |
| 1778041941 | 5.56° C | 74% | 1015.9 hPa | - | - | - | - |
| 1778041348 | 5.56° C | 72% | 1015.7 hPa | - | - | - | - |
| 1778041341 | 5.56° C | 72% | 1015.7 hPa | - | - | - | - |
| 1778040745 | 6.11° C | 72% | 1015.7 hPa | - | - | - | - |
| 1778040737 | 6.11° C | 72% | 1015.7 hPa | - | - | - | - |
| 1778040130 | 6.11° C | 72% | 1015.8 hPa | - | - | - | - |
| 1778039920 | 6.11° C | 71% | 1015.7 hPa | - | - | - | - |
| 1778039530 | 6.11° C | 71% | 1015.7 hPa | - | - | - | - |
| 1778038930 | 6.11° C | 70% | 1015.7 hPa | - | - | - | - |
| 1778038330 | 6.11° C | 69% | 1015.7 hPa | - | - | - | - |
| 1778037730 | 6.67° C | 69% | 1015.6 hPa | - | - | - | - |
* Rain since midnight (hover to see other rain measurements)
** Current wind speed in m/s (hover to see current wind gust speed)